OPS 4682 DEB, 55114

Orbit data source: Space-Track

OPS 4682 DEB, 55114 is space debris in LEO originally from a launch on Sat, 03 Apr 1965 UTC launched from the Air Force Western Test Range (AFWTR). Debris objects in space refer to the collection of defunct objects orbiting the Earth. Examples of debris include non-operational satellites, rocket bodies, and fragments generated from explosions, collisions, or faulty payload assembly.

Loading next visibility...
Identifier
55114, 1965-027HD
Orbit
LEO
Country
Flag of USUS
Related business
Manufacturer
Unknown
Mission
Spacecraft
Bus & Motor
Unknown
Mass
Unknown
Launch date (UTC)
1965-04-03 (61 years ago)
Launch vehicle
Unknown
Launch site
Air Force Western Test Range (AFWTR)
Object type
Payload
Rocket body
Debris
Shape & HBR
Unknown shape, 1.1 m
Radar Cross Section
Medium (>0.1 m² and <1 m²)

Expand to show TLE details & history
Last TLE update: 6 days ago

TLE from 6 days ago
0 OPS 4682 DEB
1 55114U 65027HD  26258.08764346  .00000459  00000-0  15531-2 0  9992
2 55114  90.2726  20.3349 0032545 211.9746 147.9400 12.97422404559542
Epoch: 2026-09-15T02:06Z
TLE epoch observation values (Epoch: 2026-09-15T02:06:12.394Z)
Latitude
-0.00008°
Longitude
-5.27536°
Altitude
1,296.21 km
Speed
7.198 km/s
True Right ascension
01h 21m 20s
True Declination
0° 00' 00"
Sunlit
Object was in full shadow at epoch
Visualization orbit readout
Latitude
Unknown
Longitude
Unknown
Altitude
Unknown
Speed
Unknown
Apparent Right ascension
Unknown
Apparent Declination
Unknown
Sunlit
N/A
Visualization observer readout
Local Sidereal Time
12:10:07
Azimuth
Unknown
Elevation
Unknown
Doppler factor
Unknown
Orbital elements
Apogee altitude
1,294.222 km
Perigee altitude
1,244.445 km
Semi-major axis
7,647.47 km
Eccentricity
0.00325
Inclination
90.2726°
RAAN
20.3349°
Arg. of periapsis
211.9746°
True anomaly
148.13728°
Mean anomaly
147.94°
Eccentric anomaly
148.03871°
Mean motion
3.24539 °/min
Orbital period
110.93 mins
BSTAR
0.0015531
Loading maneuver chart data...
Computing Atmospheric mass density...
Loading historical data...
Loading historical data...
Loading historical data...
Loading historical data...
Loading historical data...
Loading historical data...
Loading historical data...

Documentation

Showing up to 5 results
|